EW6913 Sykia GR current weather conditions

sailwx.info

Wind from 212 at 0 knots gusting 2

Air temperature 23.9° C
Dewpoint 15.1° C

Last reported at 2020-Aug-06 00:58 UTC.
Time now 2020-Aug-06 01:28 UTC

Location: N 38°04' E 022°40'.
View on Google Maps.

See reports from other nearby stations

  
Tides and Currents Weather Stations Pressure Air Temp Water Temp Dewpoint Dewpoint Depression Visibility Wind Speed Wind Dir Waves Ship Positions
date/time (UTC)wind fromknots sea level pressurealtimeterstation pressurevisibilityair tempwater tempwave heightnotes
2020-Aug-06 01:08 212 1 gusting 2 23.9
2020-Aug-06 01:03 212 1 gusting 2 23.9
2020-Aug-06 00:58 212 0 gusting 2 23.9
2020-Aug-06 00:53 212 0 gusting 1 23.9
2020-Aug-06 00:48 212 0 gusting 2 23.3
2020-Aug-06 00:43 212 0 gusting 2 23.3
2020-Aug-06 00:38 212 0 gusting 2 23.3
2020-Aug-06 00:33 212 0 gusting 2 23.3
2020-Aug-06 00:28 213 0 gusting 2 23.3
2020-Aug-06 00:23 211 0 gusting 2 23.3
2020-Aug-06 00:18 212 0 gusting 2 23.3
2020-Aug-06 00:13 209 0 gusting 2 23.3
2020-Aug-06 00:08 209 0 gusting 1 23.3
2020-Aug-06 00:03 209 0 gusting 1 23.3
2020-Aug-05 23:58 209 23.3
2020-Aug-05 23:53 209 23.3
2020-Aug-05 23:48 209 0 gusting 2 23.3
2020-Aug-05 23:43 209 23.9
2020-Aug-05 23:38 209 0 gusting 2 23.9
2020-Aug-05 23:33 209 1 gusting 2 23.9
2020-Aug-05 23:28 209 1 gusting 2 23.9
2020-Aug-05 23:23 210 23.9
2020-Aug-05 23:17 215 0 gusting 2 23.9
2020-Aug-05 23:12 215 0 gusting 2 23.9
2020-Aug-05 23:07 225 23.9
2020-Aug-05 23:02 225 0 gusting 3 23.9
2020-Aug-05 22:57 225 0 gusting 3 24.4
2020-Aug-05 22:52 191 0 gusting 3 24.4
2020-Aug-05 22:47 189 0 gusting 2 25.0
2020-Aug-05 22:42 183 25.0
2020-Aug-05 22:37 183 25.0
2020-Aug-05 22:32 183 25.6
2020-Aug-05 22:27 183 25.6
2020-Aug-05 22:22 183 25.6
2020-Aug-05 22:17 183 25.6
2020-Aug-05 22:12 182 0 gusting 2 25.6
2020-Aug-05 22:07 125 25.6
2020-Aug-05 22:02 121 25.6
2020-Aug-05 21:57 196 25.6
2020-Aug-05 21:52 196 25.6
2020-Aug-05 21:47 196 25.6
2020-Aug-05 21:42 205 0 gusting 2 25.6
2020-Aug-05 21:37 200 0 gusting 2 25.6
2020-Aug-05 21:32 200 0 gusting 2 25.6
2020-Aug-05 21:27 200 0 gusting 2 26.1
2020-Aug-05 21:22 199 0 gusting 2 26.1
2020-Aug-05 21:17 199 26.1
2020-Aug-05 21:12 199 26.1
2020-Aug-05 21:07 199 26.1
2020-Aug-05 21:02 199 26.7
2020-Aug-05 20:57 199 0 gusting 2 26.7
2020-Aug-05 20:52 199 0 gusting 2 26.7
2020-Aug-05 20:47 199 26.1
2020-Aug-05 20:42 199 26.1
2020-Aug-05 20:37 199 0 gusting 2 26.1
2020-Aug-05 20:32 203 0 gusting 2 26.7
2020-Aug-05 20:27 203 1 gusting 3 26.7
2020-Aug-05 20:22 197 0 gusting 3 27.2
2020-Aug-05 20:17 161 0 gusting 3 27.2
2020-Aug-05 20:12 161 1 gusting 5 27.8
2020-Aug-05 20:07 135 0 gusting 5 27.8
2020-Aug-05 20:02 174 0 gusting 6 27.8
2020-Aug-05 19:56 182 1 gusting 6 27.8
2020-Aug-05 19:51 186 1 gusting 5 27.8
2020-Aug-05 19:46 205 1 gusting 5 27.8
2020-Aug-05 19:41 202 0 gusting 3 27.8
2020-Aug-05 19:36 204 0 gusting 3 27.8
2020-Aug-05 19:31 205 1 gusting 3 28.3
2020-Aug-05 19:26 197 1 gusting 3 28.3
2020-Aug-05 19:21 202 1 gusting 4 28.3
2020-Aug-05 19:16 198 1 gusting 6 28.3
2020-Aug-05 19:11 200 1 gusting 6 28.3
2020-Aug-05 19:06 186 1 gusting 6 28.3
2020-Aug-05 19:01 193 1 gusting 6 28.3
2020-Aug-05 18:56 191 1 gusting 6 28.9
2020-Aug-05 18:51 202 2 gusting 6 28.9
2020-Aug-05 18:46 149 2 gusting 6 28.9
2020-Aug-05 18:41 147 1 gusting 6 28.9
2020-Aug-05 18:36 154 0 gusting 2 29.4
2020-Aug-05 18:31 115 29.4
2020-Aug-05 18:26 076 0 gusting 2 29.4
2020-Aug-05 18:21 138 29.4
2020-Aug-05 18:16 189 0 gusting 3 29.4
2020-Aug-05 18:11 183 0 gusting 1 29.4
2020-Aug-05 18:06 175 0 gusting 2 29.4
2020-Aug-05 18:01 194 1 gusting 3 29.4
2020-Aug-05 17:56 192 0 gusting 3 29.4
2020-Aug-05 17:51 152 29.4
2020-Aug-05 17:46 140 0 gusting 2 29.4
2020-Aug-05 17:41 142 1 gusting 5 29.4
2020-Aug-05 17:36 112 1 gusting 6 29.4
2020-Aug-05 17:31 138 0 gusting 6 29.4
2020-Aug-05 17:26 325 0 gusting 2 29.4
2020-Aug-05 17:21 325 0 gusting 2 29.4
2020-Aug-05 17:16 313 29.4
2020-Aug-05 17:11 313 0 gusting 3 29.4
2020-Aug-05 17:06 313 0 gusting 3 28.9
2020-Aug-05 17:01 299 2 gusting 11 28.9
2020-Aug-05 16:56 304 5 gusting 11 28.9
2020-Aug-05 16:51 337 5 gusting 9 29.4
2020-Aug-05 16:46 339 4 gusting 7 29.4
2020-Aug-05 16:41 339 1 gusting 6 29.4
2020-Aug-05 16:36 315 0 gusting 3 29.4
2020-Aug-05 16:31 317 1 gusting 4 29.4
2020-Aug-05 16:26 316 3 gusting 6 29.4
2020-Aug-05 16:21 333 6 gusting 7 30.0
2020-Aug-05 16:16 355 6 gusting 7 30.0
2020-Aug-05 16:11 348 4 gusting 7 31.1
2020-Aug-05 16:06 335 2 gusting 6 31.1
2020-Aug-05 16:01 292 2 gusting 6 31.1
2020-Aug-05 15:56 321 1 gusting 4 31.1
2020-Aug-05 15:51 316 2 gusting 4 31.1
2020-Aug-05 15:46 330 2 gusting 5 31.7
2020-Aug-05 15:41 329 2 gusting 5 31.7
2020-Aug-05 15:35 316 2 gusting 6 31.7
2020-Aug-05 15:30 301 2 gusting 6 32.2
2020-Aug-05 15:25 279 1 gusting 6 31.7
2020-Aug-05 15:20 317 2 gusting 7 31.7
2020-Aug-05 15:15 202 5 gusting 11 31.1
2020-Aug-05 15:11 101 6 gusting 11 30.6
2020-Aug-05 15:05 096 7 gusting 11 30.6
2020-Aug-05 15:00 100 6 gusting 10 30.6
2020-Aug-05 14:55 084 7 gusting 10 30.6
2020-Aug-05 14:50 088 7 gusting 10 30.6
2020-Aug-05 14:45 082 6 gusting 10 30.0
2020-Aug-05 14:40 071 5 gusting 9 30.0
2020-Aug-05 14:35 084 4 gusting 8 29.4
2020-Aug-05 14:30 059 3 gusting 5 30.0
2020-Aug-05 14:25 059 2 gusting 5 30.6
2020-Aug-05 14:20 084 2 gusting 6 30.6
2020-Aug-05 14:15 116 2 gusting 6 30.6
2020-Aug-05 14:10 124 2 gusting 6 30.6
2020-Aug-05 14:05 092 3 gusting 6 30.0
2020-Aug-05 14:00 144 3 gusting 6 29.4
2020-Aug-05 13:55 109 3 gusting 6 29.4
2020-Aug-05 13:50 118 4 gusting 6 29.4
2020-Aug-05 13:45 099 3 gusting 6 29.4
2020-Aug-05 13:40 094 3 gusting 6 29.4
2020-Aug-05 13:35 113 3 gusting 6 29.4
2020-Aug-05 13:30 086 4 gusting 7 30.0
2020-Aug-05 13:25 105 4 gusting 7 30.0
2020-Aug-05 13:20 121 4 gusting 8 30.0
2020-Aug-05 13:15 134 6 gusting 9 30.0
2020-Aug-05 13:10 117 6 gusting 9 30.0
2020-Aug-05 13:05 090 6 gusting 9 30.6
2020-Aug-05 13:00 101 6 gusting 8 31.1
2020-Aug-05 12:55 096 6 gusting 8 31.1
2020-Aug-05 12:50 086 6 gusting 8 31.7
2020-Aug-05 12:45 088 5 gusting 7 32.2
2020-Aug-05 12:40 087 2 gusting 6 33.3
2020-Aug-05 12:35 087 1 gusting 6 33.9
2020-Aug-05 12:30 109 3 gusting 7 33.3
2020-Aug-05 12:25 168 3 gusting 7 32.8
2020-Aug-05 12:20 101 4 gusting 8 32.2
2020-Aug-05 12:15 118 4 gusting 8 31.7
2020-Aug-05 12:10 121 3 gusting 7 30.6
2020-Aug-05 12:05 100 3 gusting 7 29.4
2020-Aug-05 12:00 099 4 gusting 6 28.9
2020-Aug-05 11:55 090 4 gusting 6 28.9
2020-Aug-05 11:50 089 4 gusting 6 28.9
2020-Aug-05 11:45 087 3 gusting 6 28.9
2020-Aug-05 11:40 106 2 gusting 5 28.9
2020-Aug-05 11:35 103 2 gusting 3 28.3
2020-Aug-05 11:30 084 2 gusting 3 28.3
2020-Aug-05 11:25 083 2 gusting 5 28.3
2020-Aug-05 11:20 086 3 gusting 5 28.3
2020-Aug-05 11:10 098 1 gusting 5 27.8
2020-Aug-05 11:00 069 2 gusting 3 27.8
2020-Aug-05 10:55 069 2 gusting 3 27.8
2020-Aug-05 10:50 035 2 gusting 3 27.8
2020-Aug-05 10:45 035 1 gusting 3 27.8
2020-Aug-05 10:40 012 1 gusting 3 27.8
2020-Aug-05 10:35 27.8
2020-Aug-05 10:30 27.8
2020-Aug-05 10:25 27.8
2020-Aug-05 10:20 005 3 gusting 4 27.8
2020-Aug-05 10:14 349 3 gusting 4 27.8
2020-Aug-05 10:09 27.8
2020-Aug-05 10:04 034 4 gusting 6 27.8
2020-Aug-05 09:59 019 4 gusting 6 27.2
2020-Aug-05 09:54 038 4 gusting 6 27.8
2020-Aug-05 09:49 035 4 gusting 5 27.8
2020-Aug-05 09:44 049 2 gusting 5 27.8
2020-Aug-05 09:39 049 2 gusting 4 27.8
2020-Aug-05 09:34 009 3 gusting 4 27.8
2020-Aug-05 09:29 27.8
2020-Aug-05 09:24 350 4 gusting 7 27.8
2020-Aug-05 09:19 346 6 gusting 7 28.3
2020-Aug-05 09:14 346 6 gusting 8 27.8
2020-Aug-05 09:09 342 6 gusting 8 27.8
2020-Aug-05 09:04 339 6 gusting 7 27.8
2020-Aug-05 08:59 338 6 gusting 8 27.8
2020-Aug-05 08:54 344 6 gusting 9 27.8
2020-Aug-05 08:49 348 7 gusting 10 27.8
2020-Aug-05 08:44 341 6 gusting 10 27.8
2020-Aug-05 08:39 355 4 gusting 6 27.8
2020-Aug-05 08:34 351 3 gusting 6 27.8
2020-Aug-05 08:29 27.8
2020-Aug-05 08:24 010 2 gusting 4 27.8
2020-Aug-05 08:19 009 3 gusting 4 27.8
2020-Aug-05 08:14 009 3 gusting 4 27.8
2020-Aug-05 08:09 355 3 gusting 5 27.8
2020-Aug-05 08:04 349 2 gusting 4 27.8
2020-Aug-05 07:58 018 1 gusting 3 27.2
2020-Aug-05 07:53 078 2 gusting 3 27.2
2020-Aug-05 07:48 059 1 gusting 3 27.2
2020-Aug-05 07:43 069 2 gusting 5 27.2
2020-Aug-05 07:38 106 3 gusting 6 27.2
2020-Aug-05 07:33 099 4 gusting 7 27.2
2020-Aug-05 07:28 093 4 gusting 7 27.8
2020-Aug-05 07:23 105 4 gusting 7 27.8
2020-Aug-05 07:18 085 5 gusting 7 27.2
2020-Aug-05 07:13 109 6 gusting 8 27.2
2020-Aug-05 07:08 114 6 gusting 9 27.2
2020-Aug-05 07:03 090 6 gusting 9 27.2
2020-Aug-05 06:58 098 6 gusting 8 27.8
2020-Aug-05 06:53 104 5 gusting 10 27.8
2020-Aug-05 06:48 123 6 gusting 10 27.8
2020-Aug-05 06:43 140 6 gusting 10 27.2
2020-Aug-05 06:38 108 6 gusting 10 27.2
2020-Aug-05 06:33 102 6 gusting 10 27.2
2020-Aug-05 06:28 105 6 gusting 9 27.2
2020-Aug-05 06:23 121 6 gusting 9 27.2
2020-Aug-05 06:18 090 6 gusting 8 27.2
2020-Aug-05 06:13 113 6 gusting 9 27.2
2020-Aug-05 06:08 089 6 gusting 9 27.2
2020-Aug-05 06:03 084 5 gusting 7 27.2
2020-Aug-05 05:58 098 4 gusting 7 27.2
2020-Aug-05 05:53 096 3 gusting 6 27.8
2020-Aug-05 05:47 096 1 gusting 5 27.8
2020-Aug-05 05:42 105 0 gusting 3 28.3
2020-Aug-05 05:37 219 0 gusting 1 28.3
2020-Aug-05 05:32 219 28.3
2020-Aug-05 05:27 219 28.3
2020-Aug-05 05:22 219 28.3
2020-Aug-05 05:17 219 27.8
2020-Aug-05 05:12 219 0 gusting 2 27.8
2020-Aug-05 05:07 219 0 gusting 2 27.2
2020-Aug-05 05:02 219 0 gusting 2 27.2
2020-Aug-05 04:57 212 26.7
2020-Aug-05 04:52 212 26.1
2020-Aug-05 04:47 212 25.6
2020-Aug-05 04:42 212 24.4
2020-Aug-05 04:37 212 24.4
2020-Aug-05 04:32 212 23.9
2020-Aug-05 04:27 212 0 gusting 2 23.9
2020-Aug-05 04:22 212 1 gusting 2 23.9
2020-Aug-05 04:17 212 0 gusting 2 23.3
2020-Aug-05 04:12 213 23.3
2020-Aug-05 04:07 213 0 gusting 2 23.3
2020-Aug-05 04:02 213 0 gusting 3 22.8
2020-Aug-05 03:57 213 0 gusting 3 22.8
2020-Aug-05 03:52 213 0 gusting 2 22.8
2020-Aug-05 03:47 213 22.8
2020-Aug-05 03:42 213 0 gusting 2 22.8
2020-Aug-05 03:37 213 0 gusting 2 23.3
2020-Aug-05 03:32 213 0 gusting 2 22.8
2020-Aug-05 03:27 213 0 gusting 2 23.3
2020-Aug-05 03:22 211 0 gusting 1 23.3
2020-Aug-05 03:17 211 0 gusting 2 23.3
2020-Aug-05 03:12 211 0 gusting 3 23.3
2020-Aug-05 03:07 211 1 gusting 3 23.3
2020-Aug-05 03:02 211 0 gusting 2 23.3
2020-Aug-05 02:57 211 0 gusting 2 23.3
2020-Aug-05 02:52 211 0 gusting 2 23.3
2020-Aug-05 02:47 211 0 gusting 2 23.3
2020-Aug-05 02:42 211 0 gusting 2 23.3
2020-Aug-05 02:37 211 0 gusting 2 23.3
2020-Aug-05 02:32 211 0 gusting 2 23.3
2020-Aug-05 02:27 211 0 gusting 2 23.3
2020-Aug-05 02:22 211 0 gusting 2 23.3
2020-Aug-05 02:17 210 0 gusting 2 23.3
2020-Aug-05 02:12 210 0 gusting 2 23.3
2020-Aug-05 02:07 211 0 gusting 2 23.3
2020-Aug-05 02:02 211 0 gusting 2 23.3
2020-Aug-05 01:57 212 23.3
2020-Aug-05 01:52 212 0 gusting 3 23.3
2020-Aug-05 01:47 212 1 gusting 3 23.3
2020-Aug-05 01:42 201 1 gusting 4 23.3
2020-Aug-05 01:37 200 1 gusting 4 23.3
2020-Aug-05 01:32 202 1 gusting 3 23.3
2020-Aug-05 01:27 203 1 gusting 3 23.3
2020-Aug-05 01:22 203 1 gusting 3 23.3
2020-Aug-05 01:16 204 1 gusting 3 22.8
2020-Aug-05 01:12 209 1 gusting 3 23.3
2020-Aug-05 01:06 215 1 gusting 3 23.3
2020-Aug-05 01:01 227 0 gusting 2 23.3
2020-Aug-05 00:56 227 0 gusting 1 23.3
2020-Aug-05 00:51 227 0 gusting 1 23.3
2020-Aug-05 00:46 227 23.3
2020-Aug-05 00:41 227 23.3
2020-Aug-05 00:36 227 0 gusting 2 23.3
2020-Aug-05 00:31 227 0 gusting 2 23.3
2020-Aug-05 00:26 227 0 gusting 2 23.3
2020-Aug-05 00:21 227 0 gusting 2 23.3
2020-Aug-05 00:16 227 0 gusting 2 23.3
2020-Aug-05 00:11 227 0 gusting 1 23.9
2020-Aug-05 00:06 228 0 gusting 1 23.9
2020-Aug-05 00:01 228 23.9
2020-Aug-04 23:56 226 23.9
2020-Aug-04 23:51 226 0 gusting 2 23.9
2020-Aug-04 23:46 226 0 gusting 2 23.9
2020-Aug-04 23:41 226 23.9
2020-Aug-04 23:36 226 23.9
2020-Aug-04 23:31 226 23.9
2020-Aug-04 23:26 226 0 gusting 1 23.9
2020-Aug-04 23:21 226 0 gusting 1 23.9
2020-Aug-04 23:16 226 0 gusting 2 23.9
2020-Aug-04 23:11 226 0 gusting 2 23.9
2020-Aug-04 23:06 226 0 gusting 2 23.9
2020-Aug-04 23:01 226 0 gusting 2 23.9
2020-Aug-04 22:56 226 0 gusting 2 23.9
2020-Aug-04 22:51 226 0 gusting 2 23.9
2020-Aug-04 22:46 226 0 gusting 1 24.4
2020-Aug-04 22:41 226 0 gusting 1 24.4
2020-Aug-04 22:36 226 24.4
2020-Aug-04 22:31 226 24.4
2020-Aug-04 22:26 226 0 gusting 1 24.4
2020-Aug-04 22:21 226 24.4
2020-Aug-04 22:16 226 25.0
2020-Aug-04 22:11 226 25.0
2020-Aug-04 22:06 226 25.0
2020-Aug-04 22:01 226 25.0
2020-Aug-04 21:56 226 0 gusting 1 25.6
2020-Aug-04 21:51 226 0 gusting 1 25.6
2020-Aug-04 21:46 226 0 gusting 1 25.6
2020-Aug-04 21:41 226 0 gusting 2 25.6
2020-Aug-04 21:36 226 0 gusting 2 25.6
2020-Aug-04 21:31 226 25.6
2020-Aug-04 21:26 226 25.6
2020-Aug-04 21:21 226 25.6
2020-Aug-04 21:16 226 25.6
2020-Aug-04 21:11 226 25.6
2020-Aug-04 21:06 226 25.6
2020-Aug-04 21:01 226 26.1
2020-Aug-04 20:56 226 26.1
2020-Aug-04 20:51 226 26.1
2020-Aug-04 20:46 226 26.1
2020-Aug-04 20:41 226 0 gusting 2 26.1
2020-Aug-04 20:36 225 0 gusting 4 26.1
2020-Aug-04 20:31 218 0 gusting 4 26.1
2020-Aug-04 20:26 195 0 gusting 2 26.1
2020-Aug-04 20:21 195 0 gusting 2 26.1
2020-Aug-04 20:15 195 0 gusting 2 26.1
2020-Aug-04 20:10 195 0 gusting 2 26.1
2020-Aug-04 20:05 195 0 gusting 1 26.7
2020-Aug-04 20:00 195 0 gusting 1 26.7
2020-Aug-04 19:55 195 26.7
2020-Aug-04 19:50 195 27.2
2020-Aug-04 19:45 195 27.2
2020-Aug-04 19:40 195 27.2
2020-Aug-04 19:35 195 27.2
2020-Aug-04 19:30 195 27.2
2020-Aug-04 19:25 195 0 gusting 1 27.2
2020-Aug-04 19:20 195 0 gusting 1 27.2
2020-Aug-04 19:15 195 0 gusting 3 27.2
2020-Aug-04 19:10 195 0 gusting 3 27.2
2020-Aug-04 19:05 195 1 gusting 4 27.2
2020-Aug-04 19:00 195 1 gusting 4 27.2
2020-Aug-04 18:55 193 1 gusting 3 27.2
2020-Aug-04 18:50 193 2 gusting 3 27.2
2020-Aug-04 18:45 192 1 gusting 3 27.2
2020-Aug-04 18:40 188 1 gusting 3 27.2
2020-Aug-04 18:35 178 1 gusting 3 27.8
2020-Aug-04 18:30 171 0 gusting 3 27.8
2020-Aug-04 18:25 171 28.3
2020-Aug-04 18:20 171 28.3
2020-Aug-04 18:15 171 0 gusting 3 28.9
2020-Aug-04 18:10 171 0 gusting 3 28.9
2020-Aug-04 18:05 160 0 gusting 3 29.4
2020-Aug-04 18:00 149 0 gusting 2 29.4
2020-Aug-04 17:55 143 0 gusting 2 29.4
2020-Aug-04 17:50 115 1 gusting 3 29.4
2020-Aug-04 17:45 109 0 gusting 3 29.4
2020-Aug-04 17:40 118 0 gusting 3 29.4
2020-Aug-04 17:35 125 0 gusting 3 29.4
2020-Aug-04 17:30 121 1 gusting 5 29.4
2020-Aug-04 17:25 121 2 gusting 6 30.0
2020-Aug-04 17:20 126 2 gusting 6 30.0
2020-Aug-04 17:15 131 2 gusting 5 30.0
2020-Aug-04 17:10 135 2 gusting 6 30.0
2020-Aug-04 17:05 132 2 gusting 6 30.0
2020-Aug-04 17:00 123 2 gusting 6 30.0
2020-Aug-04 16:55 112 2 gusting 5 30.0
2020-Aug-04 16:50 117 2 gusting 6 30.0
2020-Aug-04 16:45 075 3 gusting 6 30.0
2020-Aug-04 16:40 107 2 gusting 6 30.6
2020-Aug-04 16:35 063 1 gusting 4 30.6
2020-Aug-04 16:30 060 1 gusting 4 30.6
2020-Aug-04 16:25 060 2 gusting 5 30.0
2020-Aug-04 16:19 057 2 gusting 5 30.0
2020-Aug-04 16:14 056 2 gusting 3 30.0
2020-Aug-04 16:09 039 1 gusting 4 30.0
2020-Aug-04 16:04 036 1 gusting 4 30.0
2020-Aug-04 15:59 005 2 gusting 4 30.0
2020-Aug-04 15:54 035 3 gusting 5 30.0
2020-Aug-04 15:49 342 2 gusting 5 30.0
2020-Aug-04 15:44 355 3 gusting 4 30.0
2020-Aug-04 15:39 348 3 gusting 5 30.6
2020-Aug-04 15:34 348 4 gusting 5 30.6
2020-Aug-04 15:29 340 3 gusting 5 30.6
2020-Aug-04 15:24 351 2 gusting 4 30.6
2020-Aug-04 15:19 005 2 gusting 3 30.6
2020-Aug-04 15:14 005 2 gusting 3 30.6
2020-Aug-04 15:09 350 2 gusting 3 30.6
2020-Aug-04 15:04 022 1 gusting 3 30.6
2020-Aug-04 14:59 101 1 gusting 2 30.6
2020-Aug-04 14:54 101 1 gusting 2 30.6
2020-Aug-04 14:49 101 1 gusting 2 30.6
2020-Aug-04 14:44 101 1 gusting 2 30.6
2020-Aug-04 14:39 101 1 gusting 2 30.6
2020-Aug-04 14:34 101 1 gusting 2 30.6
2020-Aug-04 14:29 101 1 gusting 2 30.6
2020-Aug-04 14:24 101 2 gusting 3 30.6
2020-Aug-04 14:19 101 2 gusting 3 30.6
2020-Aug-04 14:14 101 2 gusting 3 30.6
2020-Aug-04 14:09 101 2 gusting 3 30.6
2020-Aug-04 14:04 106 2 gusting 3 30.6
2020-Aug-04 13:58 104 2 gusting 3 30.0
2020-Aug-04 13:53 105 2 gusting 3 30.0
2020-Aug-04 13:48 105 2 gusting 5 30.0
2020-Aug-04 13:43 104 2 gusting 5 30.0
2020-Aug-04 13:38 104 2 gusting 3 29.4
2020-Aug-04 13:33 104 2 gusting 3 29.4
2020-Aug-04 13:28 104 2 gusting 3 29.4
2020-Aug-04 13:23 105 2 gusting 3 30.0
2020-Aug-04 13:18 105 2 gusting 5 30.0
2020-Aug-04 13:13 105 3 gusting 5 29.4
2020-Aug-04 13:08 104 3 gusting 5 29.4
2020-Aug-04 13:03 095 3 gusting 5 29.4
2020-Aug-04 12:58 097 3 gusting 5 29.4
2020-Aug-04 12:53 099 3 gusting 5 29.4
2020-Aug-04 12:48 095 2 gusting 5 29.4
2020-Aug-04 12:43 071 2 gusting 4 29.4
2020-Aug-04 12:38 055 3 gusting 4 29.4
2020-Aug-04 12:33 050 3 gusting 4 29.4
2020-Aug-04 12:28 040 2 gusting 4 29.4
2020-Aug-04 12:23 011 2 gusting 3 29.4
2020-Aug-04 12:13 005 2 gusting 3 29.4
2020-Aug-04 12:08 005 3 gusting 4 29.4
2020-Aug-04 12:03 005 3 gusting 4 29.4
2020-Aug-04 11:58 005 3 gusting 4 29.4
2020-Aug-04 11:53 005 3 gusting 4 29.4
2020-Aug-04 11:48 29.4
2020-Aug-04 11:38 355 4 gusting 6 28.9
2020-Aug-04 11:33 355 4 gusting 6 28.9
2020-Aug-04 11:28 28.9
2020-Aug-04 11:23 355 4 gusting 5 29.4
2020-Aug-04 11:18 29.4
2020-Aug-04 11:13 010 3 gusting 3 28.9
2020-Aug-04 11:08 025 3 gusting 4 28.9
2020-Aug-04 11:02 026 3 gusting 4 28.9
2020-Aug-04 10:57 038 2 gusting 4 28.9
2020-Aug-04 10:52 041 1 gusting 2 28.9
2020-Aug-04 10:47 041 1 gusting 2 28.9
2020-Aug-04 10:42 041 1 gusting 2 28.9
2020-Aug-04 10:37 041 1 gusting 2 28.9
2020-Aug-04 10:32 041 1 gusting 2 28.9
2020-Aug-04 10:27 036 1 gusting 2 28.9
2020-Aug-04 10:22 036 1 gusting 2 29.4
2020-Aug-04 10:17 037 1 gusting 2 29.4
2020-Aug-04 10:12 038 1 gusting 2 28.9
2020-Aug-04 10:07 038 1 gusting 2 28.9
2020-Aug-04 10:02 038 2 gusting 3 28.3
2020-Aug-04 09:57 039 2 gusting 3 28.3
2020-Aug-04 09:52 053 1 gusting 2 28.3
2020-Aug-04 09:47 069 1 gusting 2 28.3
2020-Aug-04 09:42 070 2 gusting 3 28.3
2020-Aug-04 09:37 077 2 gusting 3 28.3
2020-Aug-04 09:32 079 2 gusting 3 28.3
2020-Aug-04 09:27 080 1 gusting 3 28.3
2020-Aug-04 09:22 081 2 gusting 3 27.8
2020-Aug-04 09:17 081 2 gusting 3 27.8
2020-Aug-04 09:12 081 2 gusting 3 27.8
2020-Aug-04 09:07 085 2 gusting 3 28.3
2020-Aug-04 09:02 087 2 gusting 3 27.8
2020-Aug-04 08:57 089 2 gusting 3 27.8
2020-Aug-04 08:52 089 2 gusting 5 27.8
2020-Aug-04 08:47 089 2 gusting 5 27.8
2020-Aug-04 08:42 089 2 gusting 5 27.8
2020-Aug-04 08:37 089 3 gusting 6 27.8
2020-Aug-04 08:32 091 4 gusting 6 27.8
2020-Aug-04 08:27 092 4 gusting 6 27.8
2020-Aug-04 08:22 095 4 gusting 6 27.8
2020-Aug-04 08:17 100 5 gusting 6 27.8
2020-Aug-04 08:12 097 4 gusting 6 27.8
2020-Aug-04 08:07 094 3 gusting 6 27.8
2020-Aug-04 08:02 099 4 gusting 6 27.8
2020-Aug-04 07:57 093 4 gusting 6 27.8
2020-Aug-04 07:52 089 3 gusting 5 27.8
2020-Aug-04 07:47 087 3 gusting 5 27.8
2020-Aug-04 07:42 088 3 gusting 5 27.8
2020-Aug-04 07:37 095 3 gusting 5 27.8
2020-Aug-04 07:32 100 2 gusting 5 27.8
2020-Aug-04 07:27 101 2 gusting 5 27.8
2020-Aug-04 07:22 101 2 gusting 5 27.8
2020-Aug-04 07:16 102 2 gusting 5 27.8
2020-Aug-04 07:11 103 2 gusting 5 27.8
2020-Aug-04 07:06 103 2 gusting 3 27.8
2020-Aug-04 07:01 103 2 gusting 3 27.8
2020-Aug-04 06:56 102 2 gusting 5 27.8
2020-Aug-04 06:51 103 2 gusting 5 27.8
2020-Aug-04 06:46 105 2 gusting 3 27.8
2020-Aug-04 06:41 103 2 gusting 5 27.8
2020-Aug-04 06:36 101 2 gusting 5 27.8
2020-Aug-04 06:31 103 2 gusting 5 27.8
2020-Aug-04 06:26 113 2 gusting 5 27.8
2020-Aug-04 06:21 099 3 gusting 5 27.8
2020-Aug-04 06:16 100 3 gusting 6 27.8
2020-Aug-04 06:11 101 3 gusting 6 27.8
2020-Aug-04 06:06 101 3 gusting 5 27.8
2020-Aug-04 06:01 095 2 gusting 5 27.8
2020-Aug-04 05:56 101 2 gusting 5 27.8
2020-Aug-04 05:51 099 2 gusting 5 27.8
2020-Aug-04 05:46 104 1 gusting 3 28.3
2020-Aug-04 05:41 094 1 gusting 3 28.3
2020-Aug-04 05:36 136 1 gusting 2 28.3
2020-Aug-04 05:31 184 0 gusting 2 28.9
2020-Aug-04 05:26 218 28.9
2020-Aug-04 05:21 218 28.9
2020-Aug-04 05:16 218 28.3
2020-Aug-04 05:11 218 27.8
2020-Aug-04 05:06 218 27.8
2020-Aug-04 05:01 218 27.2
2020-Aug-04 04:56 218 26.7
2020-Aug-04 04:51 218 26.1
2020-Aug-04 04:46 218 25.6
2020-Aug-04 04:41 218 25.6
2020-Aug-04 04:36 218 25.0
2020-Aug-04 04:31 218 25.0
2020-Aug-04 04:26 218 25.0
2020-Aug-04 04:21 218 0 gusting 1 24.4
2020-Aug-04 04:16 218 0 gusting 1 24.4
2020-Aug-04 04:11 218 0 gusting 1 24.4
2020-Aug-04 04:06 218 0 gusting 1 24.4
2020-Aug-04 04:01 218 24.4
2020-Aug-04 03:56 218 24.4
2020-Aug-04 03:51 218 23.9
2020-Aug-04 03:46 218 0 gusting 1 23.9
2020-Aug-04 03:41 218 0 gusting 1 23.9
2020-Aug-04 03:36 218 0 gusting 1 23.9
2020-Aug-04 03:31 218 0 gusting 1 24.4
2020-Aug-04 03:26 218 0 gusting 1 24.4
2020-Aug-04 03:21 218 25.0
2020-Aug-04 03:16 218 24.4
2020-Aug-04 03:10 218 24.4
2020-Aug-04 03:05 218 24.4
2020-Aug-04 03:00 218 24.4
2020-Aug-04 02:55 211 24.4
2020-Aug-04 02:50 211 23.9
2020-Aug-04 02:45 211 23.9
2020-Aug-04 02:40 211 0 gusting 2 23.3
2020-Aug-04 02:35 211 0 gusting 2 23.3
2020-Aug-04 02:30 211 0 gusting 2 23.3
2020-Aug-04 02:25 211 0 gusting 2 23.3
2020-Aug-04 02:20 206 0 gusting 2 23.3
2020-Aug-04 02:15 200 0 gusting 1 23.3
2020-Aug-04 02:10 200 23.3
2020-Aug-04 02:05 200 23.3
2020-Aug-04 02:00 200 23.3
2020-Aug-04 01:55 200 23.3
2020-Aug-04 01:50 200 23.3
2020-Aug-04 01:45 200 23.3
2020-Aug-04 01:40 200 23.3
2020-Aug-04 01:35 200 23.3
2020-Aug-04 01:30 200 0 gusting 2 23.3
2020-Aug-04 01:25 200 0 gusting 1 23.3
2020-Aug-04 01:20 200 0 gusting 1 23.3
2020-Aug-04 01:15 200 0 gusting 0 23.3
2020-Aug-04 01:10 200 0 gusting 1 23.9
2020-Aug-04 01:05 200 0 gusting 1 23.9
2020-Aug-04 01:00 200 23.3